Location: �bnet
(46.9957°N, 8.4908°E)
Time: 00:27:50
(UTC+00:00)

Cosmos 858 Rocket - Pass Details

Date: 11 May 2021
Orbit: 755 x 775 km, 74.1° (Epoch: 18 June)

Event Time Altitude Azimuth Distance (km) Brightness Sun altitude
Exits shadow 22:24:16 55° 210° (SSW) 907 4.6 -23.6°
Maximum altitude 22:25:25 84° 291° (WNW) 771 4.4 -23.6°
Drops below altitude 10° 22:30:41 10° 21° (NNE) 2,310 7.7 -23.8°
Sets 22:33:04 0° 22° (NNE) 3,244 8.6 -23.9°
